User: anonymous   Login
Location: Vancouver
(49.2500°N, 123.1330°W)
Time: 17:30:00
(UTC-07:00)
Language:

Cosmos 1340 Rocket - Orbit

View from above orbital plane
View from above orbital plane
View from above satellite
View from above satellite

Ground track
Ground track

The orbit data is extracted from the following two-line orbital elements,

1 13068U 82013B   15241.91414529 +.00001635 +00000-0 +11007-3 0  9997
2 13068 081.2014 252.3908 0021769 327.9585 032.0313 15.06013028824269
Epoch (UTC): 29 August 2015 21:56:22
Eccentricity: 0.0021769
inclination: 81.2014°
perigee height: 533 km
apogee height: 563 km
right ascension of ascending node: 252.3908°
argument of perigee: 327.9585°
revolutions per day: 15.06013028
mean anomaly at epoch: 32.0313°
orbit number at epoch: 82426

The dashed part of the orbit path shows where the satellite is in the earth's shadow,  

DLR